Location: Plainartige
(45.6866°N, 1.7993°E)
Time: 08:01:15
(UTC+00:00)

HJ-1C - Pass Details

Date: 03 March 2021
Orbit: 428 x 441 km, 97.1° (Epoch: 10 April)

Event Time Altitude Azimuth Distance (km) Brightness Sun altitude
Rises 18:31:30 0° 157° (SSE) 2,415 6.9 -9.3°
Reaches altitude 10° 18:33:32 10° 153° (SSE) 1,549 5.8 -9.7°
Maximum altitude 18:36:47 55° 75° (ENE) 537 3.4 -10.3°
Drops below altitude 10° 18:40:02 10° 357° (N) 1,556 6.2 -10.8°
Sets 18:42:05 0° 353° (N) 2,427 7.2 -11.2°
